When you browse on this site, cookies collect data to enhance your experience and personalize the content and advertising you see.
Visit our Privacy Policy to learn more. By continuing to use the site, you agree to this use of cookies and data.

Tiempo cada hora Cairo

Hoy, 4 Agosto, Martes

Tiempo Temperatura Precipitaciones Viento Presión Humedad
00:00 +28°C° 0 mm 3 mps 751 mmHg 56%
01:00 +28°C° 0 mm 3 mps 751 mmHg 58%
02:00 +27°C° 0 mm 2 mps 751 mmHg 59%
03:00 +27°C° 0 mm 2 mps 751 mmHg 61%
04:00 +27°C° 0 mm 2 mps 751 mmHg 63%
05:00 +26°C° 0 mm 2 mps 751 mmHg 65%
06:00 +28°C° 0 mm 2 mps 751 mmHg 59%
07:00 +29°C° 0 mm 2 mps 751 mmHg 53%
08:00 +31°C° 0 mm 2 mps 752 mmHg 46%
09:00 +34°C° 0 mm 3 mps 751 mmHg 38%
10:00 +37°C° 0 mm 3 mps 751 mmHg 30%
11:00 +39°C° 0 mm 3 mps 751 mmHg 23%
12:00 +41°C° 0 mm 4 mps 751 mmHg 19%
13:00 +43°C° 0 mm 5 mps 750 mmHg 16%
14:00 +45°C° 0 mm 6 mps 750 mmHg 13%
15:00 +45°C° 0 mm 7 mps 749 mmHg 14%
16:00 +44°C° 0 mm 8 mps 749 mmHg 15%
17:00 +44°C° 0 mm 8 mps 749 mmHg 16%
18:00 +40°C° 0 mm 8 mps 750 mmHg 22%
19:00 +36°C° 0 mm 7 mps 750 mmHg 28%
20:00 +33°C° 0 mm 6 mps 750 mmHg 35%
21:00 +30°C° 0 mm 5 mps 751 mmHg 43%
22:00 +28°C° 0 mm 4 mps 751 mmHg 51%
23:00 +26°C° 0 mm 3 mps 751 mmHg 59%

Mañana, 5 Agosto, Miércoles

Tiempo Temperatura Precipitaciones Viento Presión Humedad
00:00 +26°C° 0 mm 3 mps 751 mmHg 62%
01:00 +25°C° 0 mm 2 mps 750 mmHg 65%
02:00 +25°C° 0 mm 2 mps 750 mmHg 67%
03:00 +25°C° 0 mm 2 mps 750 mmHg 70%
04:00 +24°C° 0 mm 2 mps 750 mmHg 72%
05:00 +24°C° 0 mm 2 mps 750 mmHg 75%
06:00 +25°C° 0 mm 2 mps 750 mmHg 68%
07:00 +27°C° 0 mm 3 mps 750 mmHg 61%
08:00 +29°C° 0 mm 3 mps 750 mmHg 54%
09:00 +32°C° 0 mm 4 mps 751 mmHg 44%
10:00 +35°C° 0 mm 4 mps 751 mmHg 34%
11:00 +37°C° 0 mm 5 mps 751 mmHg 24%
12:00 +39°C° 0 mm 5 mps 750 mmHg 21%
13:00 +41°C° 0 mm 6 mps 750 mmHg 18%
14:00 +42°C° 0 mm 6 mps 750 mmHg 15%
15:00 +43°C° 0 mm 7 mps 749 mmHg 16%
16:00 +41°C° 0 mm 7 mps 749 mmHg 17%
17:00 +40°C° 0 mm 8 mps 749 mmHg 18%
18:00 +38°C° 0 mm 7 mps 750 mmHg 26%
19:00 +34°C° 0 mm 7 mps 750 mmHg 33%
20:00 +32°C° 0 mm 6 mps 751 mmHg 40%
21:00 +29°C° 0 mm 5 mps 751 mmHg 49%
22:00 +28°C° 0 mm 4 mps 751 mmHg 57%
23:00 +27°C° 0 mm 4 mps 752 mmHg 66%

Pasado mañana, 6 Agosto, Jueves

Tiempo Temperatura Precipitaciones Viento Presión Humedad
00:00 +26°C° 0 mm 3 mps 751 mmHg 70%
01:00 +25°C° 0 mm 2 mps 751 mmHg 75%
02:00 +25°C° 0 mm 2 mps 751 mmHg 80%
03:00 +24°C° 0 mm 2 mps 751 mmHg 82%
04:00 +24°C° 0 mm 1 mps 751 mmHg 84%
05:00 +24°C° 0 mm 1 mps 751 mmHg 86%
06:00 +26°C° 0 mm 2 mps 751 mmHg 78%
07:00 +27°C° 0 mm 2 mps 752 mmHg 70%
08:00 +29°C° 0 mm 2 mps 752 mmHg 63%
09:00 +31°C° 0 mm 2 mps 752 mmHg 51%
10:00 +35°C° 0 mm 2 mps 752 mmHg 40%
11:00 +37°C° 0 mm 2 mps 752 mmHg 28%
12:00 +39°C° 0 mm 2 mps 751 mmHg 24%
13:00 +40°C° 0 mm 2 mps 751 mmHg 19%
14:00 +42°C° 0 mm 2 mps 750 mmHg 15%
15:00 +43°C° 0 mm 3 mps 750 mmHg 14%
16:00 +44°C° 0 mm 4 mps 750 mmHg 14%
17:00 +45°C° 0 mm 5 mps 750 mmHg 14%
18:00 +41°C° 0 mm 5 mps 751 mmHg 25%
19:00 +36°C° 0 mm 6 mps 751 mmHg 36%
20:00 +33°C° 0 mm 6 mps 752 mmHg 47%
21:00 +32°C° 0 mm 5 mps 752 mmHg 55%
22:00 +29°C° 0 mm 4 mps 752 mmHg 63%
23:00 +27°C° 0 mm 3 mps 752 mmHg 72%

7 Agosto, Viernes

Tiempo Temperatura Precipitaciones Viento Presión Humedad
00:00 +27°C° 0 mm 3 mps 752 mmHg 75%
01:00 +26°C° 0 mm 3 mps 752 mmHg 79%
02:00 +26°C° 0 mm 2 mps 752 mmHg 82%
03:00 +25°C° 0 mm 2 mps 752 mmHg 83%
04:00 +25°C° 0 mm 2 mps 752 mmHg 84%
05:00 +25°C° 0 mm 2 mps 752 mmHg 85%
06:00 +27°C° 0 mm 2 mps 753 mmHg 77%
07:00 +28°C° 0 mm 2 mps 753 mmHg 68%
08:00 +30°C° 0 mm 2 mps 753 mmHg 60%
09:00 +34°C° 0 mm 2 mps 753 mmHg 48%
10:00 +37°C° 0 mm 3 mps 753 mmHg 36%
11:00 +39°C° 0 mm 3 mps 753 mmHg 24%
12:00 +42°C° 0 mm 3 mps 752 mmHg 20%
13:00 +44°C° 0 mm 3 mps 752 mmHg 16%
14:00 +46°C° 0 mm 3 mps 751 mmHg 12%
15:00 +47°C° 0 mm 6 mps 751 mmHg 13%
16:00 +46°C° 0 mm 8 mps 751 mmHg 13%
17:00 +47°C° 0 mm 11 mps 751 mmHg 13%
18:00 +43°C° 0 mm 9 mps 752 mmHg 23%
19:00 +38°C° 0 mm 7 mps 752 mmHg 33%
20:00 +33°C° 0 mm 6 mps 753 mmHg 43%
21:00 +32°C° 0 mm 5 mps 753 mmHg 49%
22:00 +30°C° 0 mm 4 mps 753 mmHg 55%
23:00 +28°C° 0 mm 3 mps 753 mmHg 62%

8 Agosto, Sábado

Tiempo Temperatura Precipitaciones Viento Presión Humedad
00:00 +28°C° 0 mm 3 mps 753 mmHg 65%
01:00 +27°C° 0 mm 2 mps 752 mmHg 68%
02:00 +27°C° 0 mm 2 mps 752 mmHg 72%
03:00 +27°C° 0 mm 2 mps 752 mmHg 70%
04:00 +27°C° 0 mm 2 mps 752 mmHg 69%
05:00 +27°C° 0 mm 2 mps 752 mmHg 68%
06:00 +28°C° 0 mm 2 mps 752 mmHg 63%
07:00 +29°C° 0 mm 3 mps 752 mmHg 59%
08:00 +30°C° 0 mm 3 mps 752 mmHg 54%
09:00 +34°C° 0 mm 3 mps 752 mmHg 45%
10:00 +36°C° 0 mm 3 mps 752 mmHg 36%
11:00 +38°C° 0 mm 2 mps 752 mmHg 27%
12:00 +40°C° 0 mm 3 mps 751 mmHg 24%
13:00 +43°C° 0 mm 5 mps 751 mmHg 21%
14:00 +46°C° 0 mm 6 mps 750 mmHg 18%
15:00 +45°C° 0 mm 6 mps 750 mmHg 18%
16:00 +45°C° 0 mm 7 mps 750 mmHg 18%
17:00 +45°C° 0 mm 8 mps 749 mmHg 18%
18:00 +41°C° 0 mm 7 mps 750 mmHg 26%
19:00 +38°C° 0 mm 6 mps 750 mmHg 33%
20:00 +34°C° 0 mm 6 mps 750 mmHg 40%
21:00 +32°C° 0 mm 5 mps 751 mmHg 48%
22:00 +30°C° 0 mm 4 mps 751 mmHg 55%
23:00 +28°C° 0 mm 3 mps 751 mmHg 63%

9 Agosto, Domingo

Tiempo Temperatura Precipitaciones Viento Presión Humedad
00:00 +28°C° 0 mm 3 mps 750 mmHg 66%
01:00 +27°C° 0 mm 2 mps 750 mmHg 69%
02:00 +26°C° 0 mm 2 mps 750 mmHg 73%
03:00 +26°C° 0 mm 2 mps 750 mmHg 75%
04:00 +26°C° 0 mm 2 mps 750 mmHg 77%
05:00 +25°C° 0 mm 2 mps 750 mmHg 79%
06:00 +26°C° 0 mm 2 mps 750 mmHg 72%
07:00 +28°C° 0 mm 2 mps 750 mmHg 65%
08:00 +29°C° 0 mm 3 mps 750 mmHg 58%
09:00 +31°C° 0 mm 3 mps 750 mmHg 50%
10:00 +34°C° 0 mm 4 mps 750 mmHg 41%
11:00 +36°C° 0 mm 4 mps 750 mmHg 32%
12:00 +39°C° 0 mm 5 mps 750 mmHg 28%
13:00 +40°C° 0 mm 6 mps 750 mmHg 23%
14:00 +43°C° 0 mm 7 mps 749 mmHg 19%
15:00 +41°C° 0 mm 7 mps 749 mmHg 20%
16:00 +41°C° 0 mm 7 mps 749 mmHg 20%
17:00 +41°C° 0 mm 7 mps 749 mmHg 21%
18:00 +38°C° 0 mm 7 mps 749 mmHg 29%
19:00 +35°C° 0 mm 6 mps 750 mmHg 37%
20:00 +32°C° 0 mm 5 mps 750 mmHg 45%
21:00 +30°C° 0 mm 4 mps 750 mmHg 51%
22:00 +29°C° 0 mm 4 mps 751 mmHg 58%
23:00 +28°C° 0 mm 3 mps 751 mmHg 64%
Mostrar más